www.pogodaiklimat.ru

Погода и климат >> Архив погоды >> Австралия >> Rowley Shoals


ПОГОДА в Rowley Shoals

  • Прогноз погоды в Rowley Shoals
  • Монитор погоды в Rowley Shoals
  • Климат города

АРХИВ ПОГОДЫ в Rowley Shoals

Время (UTC), дата Ветер
(напр.,м/с)
 
Видим.   Явления Облачность Т
(С)
Тd
(С)
f
(%)
Тe
(С)
Тes
(С)
Комфортность P
(гПа)
Po
(гПа)
Тmin
(С)
Tmax
(С)
R
(мм)
R24
(мм)
S
(см)
19 18.04 З 3 н/о н/о +28.7 +24 +24 комфорт 1009.4 1008.6
20 18.04 З 4 н/о н/о +28.7 +24 +24 комфорт 1009.3 1008.5
21 18.04 З 4 н/о н/о +28.6 +24 +24 комфорт 1009.7 1008.9
22 18.04 З 4 н/о н/о +28.7 +24 +24 комфорт 1010.0 1009.2
23 18.04 З 4 н/о н/о +28.7 +24 +24 комфорт 1010.4 1009.6
00 19.04 ЮЗ 5 н/о н/о +28.9 +24 +24 комфорт 1010.9 1010.1
01 19.04 ЮЗ 6 н/о н/о +29.1 +24 +24 комфорт 1011.1 1010.3
02 19.04 Ю 4 н/о н/о +29.2 +24 +24 комфорт 1011.0 1010.2
03 19.04 ЮЗ 5 н/о н/о +29.1 +24 +24 комфорт 1010.4 1009.6
04 19.04 Ю 4 н/о н/о +29.2 +24 +24 комфорт 1009.7 1008.9
05 19.04 Ю 5 н/о н/о +29.6 +25 +25 комфорт 1009.2 1008.4
06 19.04 Ю 4 н/о н/о +30.2 +25 +25 комфорт 1008.7 1007.9
07 19.04 Ю 5 н/о н/о +29.9 +25 +25 комфорт 1008.3 1007.5
08 19.04 Ю 3 н/о н/о +30.2 +25 +25 комфорт 1008.3 1007.5
09 19.04 Ю 3 н/о н/о +30.0 +25 +25 комфорт 1008.5 1007.7
10 19.04 ЮВ 3 н/о н/о +29.4 +24 +24 комфорт 1008.9 1008.1
11 19.04 ЮВ 2 н/о н/о +29.4 +24 +24 комфорт 1009.6 1008.8
12 19.04 Ю 1 н/о н/о +29.1 +24 +24 комфорт 1010.5 1009.7
13 19.04 штиль 0 н/о н/о +28.9 +24 +24 комфорт 1010.6 1009.8
14 19.04 штиль 0 н/о н/о +28.6 +24 +24 комфорт 1010.5 1009.7
15 19.04 штиль 0 н/о н/о +28.6 +24 +24 комфорт 1010.2 1009.4
16 19.04 Ю 2 н/о н/о +28.7 +24 +24 комфорт 1009.8 1009.0
17 19.04 штиль 0 н/о н/о +28.7 +24 +24 комфорт 1009.6 1008.8
18 19.04 СЗ 2 н/о н/о +28.7 +24 +24 комфорт 1009.5 1008.7
19 19.04 СЗ 3 н/о н/о +29.0 +24 +24 комфорт 1009.3 1008.5
20 19.04 СЗ 4 н/о н/о +29.1 +24 +24 комфорт 1009.2 1008.4
21 19.04 СЗ 3 н/о н/о +28.9 +24 +24 комфорт 1009.6 1008.8
22 19.04 З 2 н/о н/о +28.9 +24 +24 комфорт 1010.2 1009.4
23 19.04 штиль 0 н/о н/о +29.0 +24 +24 комфорт 1010.8 1010.0
00 20.04 ЮЗ 4 н/о н/о +29.3 +24 +24 комфорт 1011.5 1010.7
01 20.04 Ю 4 н/о н/о +29.9 +25 +25 комфорт 1011.6 1010.8
02 20.04 Ю 5 н/о н/о +29.9 +25 +25 комфорт 1011.3 1010.5
03 20.04 Ю 6 н/о н/о +30.1 +25 +25 комфорт 1010.5 1009.7
04 20.04 Ю 5 н/о н/о +29.9 +25 +25 комфорт 1010.0 1009.2
05 20.04 Ю 4 н/о н/о +30.4 +25 +25 комфорт 1009.6 1008.8
06 20.04 Ю 3 н/о н/о +30.4 +25 +25 комфорт 1009.4 1008.6
07 20.04 Ю 4 н/о н/о +30.3 +25 +25 комфорт 1009.1 1008.3
08 20.04 Ю 4 н/о н/о +30.1 +25 +25 комфорт 1009.0 1008.2
09 20.04 Ю 4 н/о н/о +30.1 +25 +25 комфорт 1009.2 1008.4
10 20.04 Ю 4 н/о н/о +29.8 +25 +25 комфорт 1009.8 1009.0
11 20.04 ЮВ 4 н/о н/о +29.8 +25 +25 комфорт 1010.4 1009.6
12 20.04 ЮВ 4 н/о н/о +29.6 +25 +25 комфорт 1010.9 1010.1
13 20.04 ЮВ 3 н/о н/о +29.5 +24 +24 комфорт 1011.4 1010.6
14 20.04 В 2 н/о н/о +29.2 +24 +24 комфорт 1011.5 1010.7
15 20.04 штиль 0 н/о н/о +29.4 +24 +24 комфорт 1011.2 1010.4
16 20.04 С 2 н/о н/о +29.3 +24 +24 комфорт 1011.0 1010.2
17 20.04 С 2 н/о н/о +29.2 +24 +24 комфорт 1011.0 1010.2
18 20.04 СЗ 2 н/о н/о +29.2 +24 +24 комфорт 1010.8 1010.0
19 20.04 СЗ 3 н/о н/о +29.2 +24 +24 комфорт 1010.4 1009.6
20 20.04 СЗ 4 н/о н/о +29.2 +24 +24 комфорт 1010.3 1009.5
21 20.04 СЗ 4 н/о н/о +29.4 +24 +24 комфорт 1010.1 1009.3
22 20.04 З 3 н/о н/о +29.7 +25 +25 комфорт 1010.7 1009.9
23 20.04 штиль 0 н/о н/о +29.6 +25 +25 комфорт 1011.7 1010.9
00 21.04 ЮЗ 2 н/о н/о +29.7 +25 +25 комфорт 1011.9 1011.1
01 21.04 Ю 3 н/о н/о +30.3 +25 +25 комфорт 1012.4 1011.6
02 21.04 ЮВ 2 н/о н/о +30.4 +25 +25 комфорт 1012.8 1012.0
03 21.04 Ю 4 н/о н/о +30.1 +25 +25 комфорт 1012.4 1011.6
04 21.04 Ю 3 н/о н/о +30.2 +25 +25 комфорт 1011.5 1010.7
05 21.04 ЮВ 1 н/о н/о +30.4 +25 +25 комфорт 1010.6 1009.8
06 21.04 ЮЗ 2 н/о н/о +30.3 +25 +25 комфорт 1010.1 1009.3
07 21.04 штиль 0 н/о н/о +31.0 +26 +26 жарко 1010.0 1009.2
08 21.04 Ю 2 н/о н/о +30.2 +25 +25 комфорт 1009.7 1008.9
09 21.04 ЮЗ 2 н/о н/о +30.5 +25 +25 комфорт 1009.8 1009.0
10 21.04 Ю 3 н/о н/о +30.2 +25 +25 комфорт 1009.9 1009.1
11 21.04 ЮЗ 2 н/о н/о +29.9 +25 +25 комфорт 1010.7 1009.9
12 21.04 ЮЗ 3 н/о н/о +29.9 +25 +25 комфорт 1011.2 1010.4
13 21.04 ЮЗ 2 н/о н/о +29.7 +25 +25 комфорт 1011.5 1010.7
14 21.04 штиль 0 н/о н/о +29.2 +24 +24 комфорт 1011.5 1010.7
15 21.04 З 1 н/о н/о +29.1 +24 +24 комфорт 1011.4 1010.6
16 21.04 З 3 н/о н/о +29.3 +24 +24 комфорт 1011.2 1010.4
17 21.04 З 3 н/о н/о +29.2 +24 +24 комфорт 1010.9 1010.1
18 21.04 З 3 н/о н/о +29.2 +24 +24 комфорт 1010.7 1009.9
19 21.04 З 4 н/о н/о +29.3 +24 +24 комфорт 1010.6 1009.8
20 21.04 З 4 н/о н/о +29.2 +24 +24 комфорт 1010.5 1009.7
21 21.04 З 3 н/о н/о +29.2 +24 +24 комфорт 1010.7 1009.9
22 21.04 З 4 н/о н/о +29.4 +24 +24 комфорт 1011.0 1010.2
23 21.04 З 4 н/о н/о +29.3 +24 +24 комфорт 1011.6 1010.8
00 22.04 З 5 н/о н/о +29.7 +25 +25 комфорт 1012.0 1011.2
01 22.04 З 5 н/о н/о +29.7 +25 +25 комфорт 1012.3 1011.5
02 22.04 З 5 н/о н/о +30.1 +25 +25 комфорт 1012.4 1011.6
03 22.04 ЮЗ 5 н/о н/о +30.1 +25 +25 комфорт 1011.6 1010.8
04 22.04 ЮЗ 6 н/о н/о +30.1 +25 +25 комфорт 1010.7 1009.9
05 22.04 ЮЗ 6 н/о н/о +30.4 +25 +25 комфорт 1010.2 1009.4
06 22.04 Ю 6 н/о н/о +30.6 +25 +25 комфорт 1009.8 1009.0
07 22.04 Ю 7 н/о н/о +30.6 +25 +25 комфорт 1009.2 1008.4
08 22.04 Ю 7 н/о н/о +30.6 +25 +25 комфорт 1009.5 1008.7
09 22.04 Ю 7 н/о н/о +30.6 +25 +25 комфорт 1009.7 1008.9
10 22.04 Ю 6 н/о н/о +30.5 +25 +25 комфорт 1010.2 1009.4
11 22.04 Ю 6 н/о н/о +30.2 +25 +25 комфорт 1011.0 1010.2
12 22.04 Ю 6 н/о н/о +30.1 +25 +25 комфорт 1011.6 1010.8
13 22.04 Ю 6 н/о н/о +30.1 +25 +25 комфорт 1011.9 1011.1
14 22.04 Ю 5 н/о н/о +30.0 +25 +25 комфорт 1011.6 1010.8
15 22.04 Ю 6 н/о н/о +29.9 +25 +25 комфорт 1011.2 1010.4
16 22.04 Ю 5 н/о н/о +29.9 +25 +25 комфорт 1010.8 1010.0
17 22.04 ЮЗ 5 н/о н/о +29.9 +25 +25 комфорт 1010.3 1009.5
18 22.04 ЮЗ 6 н/о н/о +29.7 +25 +25 комфорт 1009.9 1009.1
19 22.04 ЮЗ 6 н/о н/о +29.9 +25 +25 комфорт 1009.8 1009.0
20 22.04 Ю 7 н/о н/о +29.8 +25 +25 комфорт 1009.9 1009.1
21 22.04 Ю 7 н/о н/о +29.8 +25 +25 комфорт 1009.8 1009.0
22 22.04 Ю 7 н/о н/о +30.0 +25 +25 комфорт 1010.1 1009.3
23 22.04 Ю 6 н/о н/о +30.0 +25 +25 комфорт 1010.9 1010.1
00 23.04 Ю 4 н/о н/о +30.3 +25 +25 комфорт 1011.2 1010.4
01 23.04 Ю 2 н/о н/о +31.1 +26 +26 жарко 1011.5 1010.7
02 23.04 Ю 3 н/о н/о +30.9 +26 +26 жарко 1011.4 1010.6
03 23.04 ЮВ 3 н/о н/о +31.1 +26 +26 жарко 1010.7 1009.9
04 23.04 В 3 н/о н/о +30.7 +26 +26 жарко 1010.2 1009.4
05 23.04 ЮВ 3 н/о н/о +30.7 +26 +26 жарко 1009.6 1008.8
06 23.04 ЮВ 3 н/о н/о +30.9 +26 +26 жарко 1008.9 1008.1
07 23.04 ЮВ 3 н/о н/о +30.9 +26 +26 жарко 1008.9 1008.1
08 23.04 ЮВ 3 н/о н/о +30.8 +26 +26 жарко 1008.9 1008.1
09 23.04 ЮВ 2 н/о н/о +30.8 +26 +26 жарко 1009.1 1008.3
10 23.04 ЮВ 2 н/о н/о +30.3 +25 +25 комфорт 1009.5 1008.7
11 23.04 ЮВ 3 н/о н/о +30.2 +25 +25 комфорт 1010.0 1009.2
12 23.04 Ю 2 н/о н/о +30.0 +25 +25 комфорт 1010.6 1009.8
13 23.04 Ю 2 н/о н/о +29.9 +25 +25 комфорт 1010.8 1010.0
14 23.04 Ю 2 н/о н/о +29.8 +25 +25 комфорт 1010.7 1009.9
15 23.04 Ю 3 н/о н/о +29.7 +25 +25 комфорт 1010.7 1009.9
16 23.04 ЮЗ 2 н/о н/о +29.6 +25 +25 комфорт 1010.1 1009.3
17 23.04 З 2 н/о н/о +29.3 +24 +24 комфорт 1009.6 1008.8
18 23.04 СЗ 3 н/о н/о +29.4 +24 +24 комфорт 1009.2 1008.4
19 23.04 З 3 н/о н/о +29.2 +24 +24 комфорт 1009.5 1008.7
20 23.04 ЮЗ 5 н/о н/о +29.4 +24 +24 комфорт 1009.8 1009.0
21 23.04 ЮЗ 5 н/о н/о +29.5 +24 +24 комфорт 1009.7 1008.9
22 23.04 ЮЗ 5 н/о н/о +29.5 +24 +24 комфорт 1010.0 1009.2
23 23.04 ЮЗ 5 н/о н/о +29.3 +24 +24 комфорт 1010.7 1009.9
00 24.04 ЮЗ 4 н/о н/о +29.7 +25 +25 комфорт 1011.0 1010.2
01 24.04 ЮЗ 3 н/о н/о +30.4 +25 +25 комфорт 1011.2 1010.4
02 24.04 Ю 2 н/о н/о +31.3 +26 +26 жарко 1011.1 1010.3
03 24.04 Ю 2 н/о н/о +31.5 +26 +26 жарко 1010.4 1009.6
04 24.04 Ю 2 н/о н/о +32.0 +27 +27 жарко 1009.6 1008.8
05 24.04 Ю 3 н/о н/о +31.3 +26 +26 жарко 1009.0 1008.2
06 24.04 ЮВ 3 н/о н/о +31.4 +26 +26 жарко 1008.2 1007.4
07 24.04 ЮВ 3 н/о н/о +31.3 +26 +26 жарко 1008.0 1007.2
08 24.04 ЮВ 3 н/о н/о +30.8 +26 +26 жарко 1008.2 1007.4
09 24.04 В 3 н/о н/о +30.7 +26 +26 жарко 1008.6 1007.8
10 24.04 В 3 н/о н/о +30.3 +25 +25 комфорт 1009.4 1008.6
11 24.04 В 2 н/о н/о +30.1 +25 +25 комфорт 1010.0 1009.2
12 24.04 В 3 н/о н/о +29.9 +25 +25 комфорт 1010.6 1009.8
13 24.04 В 3 н/о н/о +29.7 +25 +25 комфорт 1010.8 1010.0
14 24.04 СВ 2 н/о н/о +29.4 +24 +24 комфорт 1010.6 1009.8
15 24.04 СВ 2 н/о н/о +29.2 +24 +24 комфорт 1010.3 1009.5
16 24.04 С 3 н/о н/о +29.1 +24 +24 комфорт 1010.1 1009.3
17 24.04 С 3 н/о н/о +29.0 +24 +24 комфорт 1009.6 1008.8
18 24.04 СЗ 3 н/о н/о +29.0 +24 +24 комфорт 1009.2 1008.4
19 24.04 СЗ 4 н/о н/о +29.2 +24 +24 комфорт 1009.2 1008.4
20 24.04 З 4 н/о н/о +29.1 +24 +24 комфорт 1009.1 1008.3
21 24.04 З 5 н/о н/о +29.1 +24 +24 комфорт 1009.0 1008.2
22 24.04 З 6 н/о н/о +29.1 +24 +24 комфорт 1009.7 1008.9
23 24.04 З 5 н/о н/о +29.3 +24 +24 комфорт 1010.2 1009.4
00 25.04 ЮЗ 6 н/о н/о +29.2 +24 +24 комфорт 1010.4 1009.6
01 25.04 ЮЗ 5 н/о н/о +29.2 +24 +24 комфорт 1010.8 1010.0
02 25.04 ЮЗ 3 н/о н/о +29.5 +24 +24 комфорт 1010.4 1009.6
03 25.04 ЮЗ 5 н/о н/о +29.5 +24 +24 комфорт 1010.0 1009.2
04 25.04 ЮЗ 3 н/о н/о +29.8 +25 +25 комфорт 1009.0 1008.2
05 25.04 ЮЗ 3 н/о н/о +30.4 +25 +25 комфорт 1008.3 1007.5
06 25.04 ЮЗ 3 н/о н/о +30.5 +25 +25 комфорт 1007.9 1007.1
07 25.04 ЮЗ 2 н/о н/о +30.5 +25 +25 комфорт 1007.7 1006.9
08 25.04 Ю 2 н/о н/о +30.7 +26 +26 жарко 1008.1 1007.3
09 25.04 Ю 1 н/о н/о +30.7 +26 +26 жарко 1008.6 1007.8
10 25.04 В 1 н/о н/о +30.2 +25 +25 комфорт 1009.2 1008.4
11 25.04 ЮВ 1 н/о н/о +30.1 +25 +25 комфорт 1009.9 1009.1
12 25.04 штиль 0 н/о н/о +29.9 +25 +25 комфорт 1010.7 1009.9
13 25.04 штиль 0 н/о н/о +29.8 +25 +25 комфорт 1010.9 1010.1
14 25.04 С 2 н/о н/о +29.7 +25 +25 комфорт 1010.7 1009.9
15 25.04 З 2 н/о н/о +29.4 +24 +24 комфорт 1010.7 1009.9
16 25.04 З 2 н/о н/о +29.2 +24 +24 комфорт 1010.5 1009.7
17 25.04 СЗ 3 н/о н/о +29.0 +24 +24 комфорт 1009.9 1009.1
18 25.04 З 4 н/о н/о +29.0 +24 +24 комфорт 1009.7 1008.9
19 25.04 З 4 н/о н/о +29.0 +24 +24 комфорт 1010.0 1009.2

 

Местоположение метеостанции Rowley Shoals (Западная Австралия, Австралия): широта -17.53 долгота 118.95 высота над уровнем моря 8 м.

В архиве по умолчанию представлена погода в Rowley Shoals за последнюю неделю. Архивные данные за месяц целиком и за предыдущие месяцы, начиная с января 2011 года, Вы можете получить, выбрав интересующий диапазон дат из раскрывающегося списка и нажав кнопку "Ввод!".


*Определитесь, кто Вы:
робот инопланетянин человек

Внимание! Время в таблицах - всемирное. Для получения местного времени необходимо прибавить поправку, которая в Rowley Shoals равна 8 ч.

Смотрите также архив погоды в соседних городах и на ближайших метеорологических станциях:

Погода в Mandora (Западная Австралия, Австралия) (316 км)
Погода в Port Hedland Apardoo (Западная Австралия, Австралия) (317 км)
Погода в Broome Airport (Западная Австралия, Австралия) (351 км)
Погода в West Roebuck (Западная Австралия, Австралия) (359 км)
Погода в Roebourne Aero (Западная Австралия, Австралия) (405 км)
Погода в Marble Bar (Западная Австралия, Австралия) (415 км)
Погода в Karratha Aero (Западная Австралия, Австралия) (422 км)
Погода в Varanus Island (Западная Австралия, Австралия) (497 км)
Погода в Derby Aero (Северная территория, Австралия) (500 км)
Погода в Adele Island (Западная Австралия, Австралия) (501 км)

Пояснения к столбцам:

Ветер - указаны скорость ветра в м/с - средняя за 10 мин, порывы в срок и между сроками (в фигурных скобках) и направление, откуда дует ветер: С - северный, СВ - северо-восточный, В - восточный, ЮВ - юго-восточный, Ю - южный, ЮЗ - юго-западный, З - западный, СЗ - северо-западный.
Видимость - горизонтальная дальность видимости в метрах или километрах. При видимости от 1 до 10 км при отсутствии осадков обычно наблюдается дымка, при ухудшении видимости до 1 км и менее - туман. В сухую погоду видимость может ухудшаться дымом, пылью или мглою.
Явления - указаны атмосферные явления, наблюдавшиеся в срок или в последний час перед сроком; фигурными скобками обозначены явления, наблюдавшиеся между сроками (за 1-3 часа до срока); квадратными скобками обозначены град или гололедные отложения с указанием их диаметра в мм.
Облачность - указаны через наклонную черту общая и нижняя облачность в баллах и высота нижней границы облаков в метрах; квадратными скобками обозначены формы облаков: Ci - перистые, Cs - перисто-слоистые, Cc - перисто-кучевые, Ac - высококучевые, As - высокослоистые, Sc - слоисто-кучевые, Ns - слоисто-дождевые, Cu - кучевые, Cb - кучево-дождевые. Подробнее классификацию облаков см. в Атласе облаков (PDF).
T - Температура воздуха - температура, измеренная на высоте 2 м над землей.
Td - Температура точки росы - температура, при понижении до которой содержащийся в воздухе водяной пар достигнет насыщения.
f - Относительная влажность воздуха - влажноcть воздуха, измеренная на высоте 2 м над землей.
Te - Эффективная температура - температура, которую ощущает одетый по сезону человек в тени. Характеристика душности погоды. При расчете учитывается влияние влажности воздуха и скорости ветра на теплоощущения человека.
Tes - Эффективная температура на солнце - температура, которую ощущает человек, с поправкой на солнечный нагрев. Характеристика знойности погоды. Зависит от высоты солнца над горизонтом, облачности и скорости ветра. Ночью, в пасмурную погоду, а также при ветре 12 м/с и более поправка равна нулю.
P - Атмосферное давление - приведенное к уровню моря атмосферное давление.
Po - Атмосферное давление - измеренное на уровне метеостанции атмосферное давление.
Tmin - Минимальная температура - минимум температуры воздуха на высоте 2 м над землей.
Tmax - Максимальная температура - максимум температуры воздуха на высоте 2 м над землей.
R - Количество осадков - Количество выпавших осадков за период времени, мм. При наведении курсора мыши на число - период времени, за который выпало указанное количество осадков.
R24 - Количество осадков - Количество выпавших осадков за 24 часа, мм.
S - Снежный покров - Высота снежного покрова, см. При наведении курсора мыши на число - состояние снежного покрова и степень покрытия местности в баллах.